Regional Weather Roundup
Issued by NWS

Home | Current Version | Previous Version | Graphics & Text | Print | Product List | Glossary Off
Versions: 1 2 3 4 5 6 7 8 9 10 11 12 13 14 15 16 17 18 19 20 21 22 23 24 25 26 27 28 29 30 31 32 33 34 35 36 37 38 39 40 41 42 43 44 45 46 47 48 49 50

000
ASUS43 KTOP 271808
RWRKS

WEATHER ROUNDUP FOR KANSAS
NATIONAL WEATHER SERVICE GOODLAND KS
1200 PM CST FRI FEB 27 2015

NOTE:  "FAIR" INDICATES FEW OR NO CLOUDS BELOW 12,000 FEET WITH NO
SIGNIFICANT WEATHER AND/OR OBSTRUCTIONS TO VISIBILITY.

KSZ001>006-013>018-027>032-041>047-271900-
NORTHWEST KANSAS

CITY           SKY/WX    TMP DP  RH WIND       PRES   REMARKS
GOODLAND       LGT SNOW  15   9  76 S18G24    30.27S WCI  -2
6HR MIN TEMP:  10; 6HR MAX TEMP:  16; 6HR PCP:  0.02;

HAYS           CLOUDY    16  -6  38 E10       30.47F WCI   3
HILL CITY      PTSUNNY   17  -1  45 SE7       30.46F
6HR MIN TEMP:   8; 6HR MAX TEMP:  17;

RUSSELL        CLOUDY    16   0  49 SE6       30.49F
6HR MIN TEMP:   7; 6HR MAX TEMP:  16;

$$

KSZ061>065-074>080-084>089-271900-
SOUTHWEST KANSAS

CITY           SKY/WX    TMP DP  RH WIND       PRES   REMARKS
DODGE CITY     LGT SNOW  13   7  77 SE8       30.42R
6HR MIN TEMP:  11; 6HR MAX TEMP:  14; 6HR PCP:  0.09;

ELKHART          N/A     12   2  64 SE20        N/A  WCI  -6
GARDEN CITY    LGT SNOW  13   9  84 S12       30.37S VSB 1   WCI  -1
6HR MIN TEMP:  11; 6HR MAX TEMP:  13; 6HR PCP:  0.01;

GREAT BEND     CLOUDY    18   0  45 E8        30.49F
LIBERAL        CLOUDY    14   7  73 SE15      30.39S WCI  -1
PRATT          LGT SNOW  14   7  73 E8        30.49F
$$

KSZ066>073-081>083-090>101-271900-
SOUTHEAST KANSAS

CITY           SKY/WX    TMP DP  RH WIND       PRES   REMARKS
CHANUTE        CLOUDY    16   0  49 NE12      30.61F WCI   3
6HR MIN TEMP:   7; 6HR MAX TEMP:  17;

COFFEYVILLE    PTSUNNY   19   1  45 N9        30.62F
6HR MIN TEMP:   9; 6HR MAX TEMP:  19;

HUTCHINSON     LGT SNOW  15   5  64 E7        30.55F
6HR MIN TEMP:  10; 6HR MAX TEMP:  15; 6HR PCP: TRACE;

MEDICINE LODGE   N/A     14   9  80 SE7       30.52F
NEWTON         CLOUDY    12   0  57 E9        30.56F
PARSONS        PTSUNNY   18   1  47 N8        30.63S
6HR MIN TEMP:   8; 6HR MAX TEMP:  19;

WICHITA INTL   LGT SNOW  14   6  70 NE8       30.56F VSB 1
6HR MIN TEMP:  11; 6HR MAX TEMP:  14; 6HR PCP:  0.02;

WICHITA JABRA  LGT SNOW  13   6  74 E9        30.56F
6HR MIN TEMP:   9; 6HR MAX TEMP:  13; 6HR PCP: TRACE;

WICHITA MCCONL LGT SNOW  14   7  73 NE9       30.56F
WINFIELD       CLOUDY    15   3  59 E8        30.59F HAZE
6HR MIN TEMP:  10; 6HR MAX TEMP:  15;

$$

KSZ007>012-019>026-033>040-048>060-102>105-271900-
NORTHEAST KANSAS

CITY           SKY/WX    TMP DP  RH WIND       PRES   REMARKS
CONCORDIA      MOSUNNY   15   2  56 MISG      30.56F
6HR MIN TEMP:   3; 6HR MAX TEMP:  15;

EMPORIA        CLOUDY    14   0  53 MISG      30.60F
6HR MIN TEMP:   5; 6HR MAX TEMP:  14;

LAWRENCE       PTSUNNY   14  -1  51 VRB3      30.65F
6HR MIN TEMP:   1; 6HR MAX TEMP:  14;

MANHATTAN      CLOUDY    15   1  53 E6        30.62F
6HR MIN TEMP:   6; 6HR MAX TEMP:  15;

MARYSVILLE     MOSUNNY   14   1  57 CALM      30.59F
OLATHE IND     FLURRIES  12  -2  53 CALM      30.63F
6HR MIN TEMP:   3; 6HR MAX TEMP:  13; 6HR PCP: TRACE;

OLATHE EXE     PTSUNNY   13  -3  49 E5        30.62F
6HR MIN TEMP:   4; 6HR MAX TEMP:  14;

SALINA         MOSUNNY   17   0  47 VRB7      30.58F
6HR MIN TEMP:   9; 6HR MAX TEMP:  17;

TOPEKA BILLARD CLOUDY    14  -1  51 E3        30.65F
6HR MIN TEMP:   5; 6HR MAX TEMP:  14;

TOPEKA FORBES  PTSUNNY   14  -1  51 E7        30.62F
6HR MIN TEMP:   6; 6HR MAX TEMP:  15;

$$



USA.gov is the U.S. government's official web portal to all federal, state and local government web resources and services.